Location: Buenos Aires
(34.6076°S, 58.4371°W)
Time: 12:40:09
(UTC-03:00)

Envisat - Pass Details

Date: 30 June 2021
Orbit: 764 x 766 km, 98.2° (Epoch: 03 August)

Event Time Altitude Azimuth Distance (km) Brightness Sun altitude
Rises 19:07:31 0° 182° (S) 3,266 6.1 -14.8°
Reaches altitude 10° 19:10:09 10° 194° (SSW) 2,332 5.5 -15.3°
Maximum altitude 19:14:21 26° 249° (WSW) 1,486 5.1 -16.2°
Drops below altitude 10° 19:18:32 10° 304° (NW) 2,309 6.6 -17.0°
Sets 19:21:09 0° 316° (NW) 3,227 7.3 -17.5°
